Location: ????????
(37.6846°N, 24.0673°E)
Time: 14:53:47
(UTC+00:00)

Cosmos 1833 Rocket - Pass Details

Date: 14 July 2020
Orbit: 832 x 840 km, 71.0° (Epoch: 04 August)

Event Time Altitude Azimuth Distance (km) Brightness Sun altitude
Exits shadow 00:45:00 43° 256° (WSW) 1,152 3.0 -22.7°
Maximum altitude 00:46:14 51° 296° (WNW) 1,035 3.0 -22.5°
Drops below altitude 10° 00:51:42 10° 12° (NNE) 2,449 6.0 -21.9°
Sets 00:54:14 0° 18° (NNE) 3,388 7.1 -21.6°
